カタログに戻る

COSMOS 1823 DEB

運用中LEO
NORAD 29360·DEBRIS·🇷🇺 Russia

打ち上げ Feb 20, 1987 から Plesetsk Cosmodrome

Loading…

次のパス (今後24時間)

TLE

最新Source: Space-Track

元期: Sep 13, 2026, 03:17 UTC

1 29360U 87020EB  26256.13696696  .00000312  00000-0  24550-2 0  9998
2 29360  73.7077 141.7778 0063762  84.9238  67.1872 12.39628687156146

AllMySatでCOSMOS 1823 DEBをリアルタイム追跡

Download on the App Store